User: anonymous   Login
Location: Elstree
(51.6403°N, 0.2969°W)
Time: 15:55:27
(UTC+00:00)
Language:

Cosmos 990 Rocket - Orbit

View from above orbital plane
View from above orbital plane
View from above satellite
View from above satellite

Ground track
Ground track

The orbit data is extracted from the following two-line orbital elements,

1 10677U 78019B   21131.60288051  .00000015  00000-0  13078-4 0  9993
2 10677  74.0380 189.4034 0016551 273.2651  86.6611 14.40179188267262
Epoch (UTC): 11 May 2021 14:28:08
Eccentricity: 0.0016551
inclination: 74.0380°
perigee height: 746 km
apogee height: 770 km
right ascension of ascending node: 189.4034°
argument of perigee: 273.2651°
revolutions per day: 14.40179188
mean anomaly at epoch: 86.6611°
orbit number at epoch: 26726

The dashed part of the orbit path shows where the satellite is in the earth's shadow,  

DLR